Regional Weather Roundup
Issued by NWS

Home | Current Version | Previous Version | Graphics & Text | Print | Product List | Glossary Off
Versions: 1 2 3 4 5 6 7 8 9 10 11 12 13 14 15 16 17 18 19 20 21 22 23 24 25 26 27 28 29 30 31 32 33 34 35 36 37 38 39 40 41 42 43 44 45 46 47 48 49 50

000
ASUS43 KMKX 290421
RWRWI

WISCONSIN REGIONAL WEATHER ROUNDUP
NATIONAL WEATHER SERVICE MILWAUKEE/SULLIVAN WI
1100 PM CDT WED JUN 28 2017

NOTE: "FAIR" INDICATES FEW OR NO CLOUDS BELOW 12,000 FEET WITH NO
SIGNIFICANT WEATHER AND/OR OBSTRUCTIONS TO VISIBILITY.

WIZ001-002-006>008-014>016-023>028-290500-
NORTHWEST WISCONSIN

CITY           SKY/WX    TMP DP  RH WIND       PRES   REMARKS
SUPERIOR ARPT  NOT AVBL
ASHLAND        CLOUDY    64  63  96 CALM      29.51R FOG
HAYWARD        CLOUDY    68  64  87 SW12      29.54R
SIREN          CLOUDY    66  62  89 SW6       29.55S
CUMBERLAND     CLOUDY    66  63  88 W9        29.57R
RICE LAKE      CLOUDY    67  65  92 S6        29.57R
CHETEK         CLOUDY    67  65  94 S6        29.56S
LADYSMITH      CLOUDY    66  65  96 S9        29.59R
EAU CLAIRE     CLOUDY    66  64  93 S7        29.57R
MENOMONIE      CLOUDY    68  65  92 S9        29.58S
NEW RICHMOND   CLOUDY    67  59  76 W9        29.59R
OSCEOLA        CLOUDY    69  61  76 W8        29.61R
$$

WIZ003>005-009-010-017-018-290500-
NORTH CENTRAL WISCONSIN

CITY           SKY/WX    TMP DP  RH WIND       PRES   REMARKS
MANITOWISH WTR CLOUDY    64  64 100 SE7       29.58S
ARBOR VITAE    CLOUDY    65  64  96 S6        29.60R
WOODRUFF       CLOUDY    65  64  96 S6        29.60R
RHINELANDER    CLOUDY    65  65 100 S7        29.63R
EAGLE RIVER    CLOUDY    64  64 100 S3        29.62R
LAND O LAKES   CLOUDY    64  64 100 SE6       29.63S
PHILLIPS       CLOUDY    65  65 100 S5        29.57S
TOMAHAWK       NOT AVBL
MEDFORD        MOCLDY    64  64  97 S7        29.61S
MERRILL        CLOUDY    66  66 100 S3        29.62S
$$

WIZ029-030-035-036-043>047-290500-
CENTRAL WISCONSIN

CITY           SKY/WX    TMP DP  RH WIND       PRES   REMARKS
WAUSAU         CLOUDY    66  65  96 S7        29.61R
MOSINEE        CLOUDY    64  64 100 S9        29.64R FOG
MARSHFIELD     CLOUDY    65  63  93 CALM      29.61S FOG
STEVENS POINT  CLOUDY    65  65 100 S9        29.64S
WAUPACA        CLOUDY    68  67  97 S10       29.64R
WAUTOMA        LGT RAIN  66  64  93 S8        29.65F
WISC RAPIDS    CLOUDY    67  65  93 S7        29.65R
CAMP DOUGLAS   CLOUDY    68  66  94 SW18      29.62F
$$

WIZ011>013-019>022-031-037>040-048>050-290500-
NORTHEAST WISCONSIN

CITY           SKY/WX    TMP DP  RH WIND       PRES   REMARKS
ANTIGO         CLOUDY    64  64 100 S9        29.64S FOG
SHAWANO        CLOUDY    68  64  88 S5        29.64S
OCONTO         CLOUDY    64  62  94 S5        29.64R
STURGEON BAY     N/A     60  58  92 S13       29.66R
GREEN BAY      CLOUDY    66  64  93 S10       29.65R
MANITOWOC      CLOUDY    62  60  93 S8        29.70R
APPLETON       MOCLDY    64  64 100 S16       29.66R
CLINTONVILLE   CLOUDY    64  63  94 S7        29.63F
OSHKOSH        TSTM      65  62  90 S17G23    29.65R
$$

WIZ032>034-041-042-053>061-290500-
SOUTHWEST WISCONSIN

CITY           SKY/WX    TMP DP  RH WIND       PRES   REMARKS
LA CROSSE      LGT RAIN  70  66  87 S7        29.64R
SPARTA         CLOUDY    65  64  98 SW3       29.64F
VIROQUA        CLOUDY    65  65 100 SE9       29.69R
BOSCOBEL       CLOUDY    69  66  90 NW5       29.66S
PRAIRIE DU CHI CLOUDY    66  65  96 CALM      29.66R
PLATTEVILLE    CLOUDY    67  67  99 SE6       29.69S
$$

WIZ056-057-062-063-064-067-068-290500-
SOUTH CENTRAL WISCONSIN

CITY           SKY/WX    TMP DP  RH WIND       PRES   REMARKS
REEDSBURG      CLOUDY    67  67 100 SW5       29.69S
BARABOO/DELLS  CLOUDY    67  64  90 W6        29.68F
LONE ROCK      CLOUDY    68  65  90 N7        29.67F
MINERAL POINT  CLOUDY    68  68 100 SE8       29.69F
MADISON        CLOUDY    67  66  97 S12       29.70F
MIDDLETON      CLOUDY    68  68 100 SE7       29.70F
WATERTOWN      LGT RAIN  65  65 100 S10       29.72F
MONROE         CLOUDY    64  63  94 SE7       29.71F
JANESVILLE     LGT RAIN  66  66 100 S5        29.74F
$$

WIZ051-052-058>065-066-070>072-290500-
SOUTHEAST WISCONSIN

CITY           SKY/WX    TMP DP  RH WIND       PRES   REMARKS
MILWAUKEE      TSTM      66  64  93 S15G24    29.79R
WAUKESHA       CLOUDY    63  61  94 SE12G17   29.75F
MILWAUKEE/TIMM LGT RAIN  63  61  94 S12       29.77S
RACINE         RAIN      65  63  93 S12       29.84R FOG
KENOSHA        HVY RAIN  65  64  97 S12       29.83S FOG
FOND DU LAC    CLOUDY    67  61  81 S17G25    29.68R
SHEBOYGAN      CLOUDY    64  63  96 S12       29.71R
WEST BEND      RAIN      63  63 100 S15G24    29.73S
JUNEAU         CLOUDY    64  63  94 S9        29.72F
$$

LSZ147-162-290500-
LAKE SUPERIOR

STATION/POSITION TIME  TEMP    WIND        PRES    WAVE
                       AIR SEA DIR/SP/G            HT/PER
                 (UTC) (F)     (DEG/KT/KT) (MB)    (FT/S)
W MID LAKE BUOY  0350   46 39   70/ 16/ 17 1001.1F   2/ 3
DEVILS ISLAND    0400   51      70/ 18/ 21  999.8R
SAXON HARBOR     0330   67     200/  3/  5  999.0S
$$

LMZ867-665-643>646-290500-
LAKE MICHIGAN

STATION/POSITION TIME  TEMP    WIND        PRES    WAVE
                       AIR SEA DIR/SP/G            HT/PER
                 (UTC) (F)     (DEG/KT/KT) (MB)    (FT/S)
CHAMBERS ISLAND  0340   62     140/  9/ 15 1003.4S
S GREEN BAY BUOY 0400   65     190/ 16/ 17 1003.7
N MID LAKE BUOY  0350   58 54  180/ 16/ 17 1005.0F   6/ 7
NORTHPORT PIER   0340   61     160/  9/ 16 1004.1F
KEWAUNEE LAKESHO 0354   58     200/  9/ 12 1004.5R
SHEBOYGAN LAKESH 0400   58     180/ 19/ 21 1006.2R
PORT WASHINGTON  0400   64     190/ 11/ 17 1007.8
ATWATER BUOY     0309   55 47  170/ 14/ 16 1008.4R
MILWAUKEE LAKESH 0400   65     200/ 16/ 19   N/A
S MID LAKE BUOY  0350   62 60  140/ 10/ 12 1010.4S   3/ 5
KENOSHA   LAKESH 0400   65     210/  7/  9 1010.5
$$

TC  - TEMPERATURE IN CELSIUS
VSB - VISIBILITY IN STATUTE MILES
WCI - WIND CHILL INDEX
HX  - HEAT INDEX




USA.gov is the U.S. government's official web portal to all federal, state and local government web resources and services.